sat.trackr.live / text

‹ back to catalog

VIGORIDE-5

NORAD 55056 · 2023-001AZ

PAYLOAD ACTIVE UNKNOWN

§ Identity

Operator
Country
US
Launch date
2023-01-03
Launch site
AFETR
Launch vehicle
Mass (kg)
RCS (m²)

External: N2YO · Heavens-Above · Gunter

§ Orbital elements

Epoch: 2026-05-25T02:28:53.932800Z

Period
92.36 min
Inclination
97.3236°
Eccentricity
0.0005040
Mean motion
15.59099564 rev/d
Perigee alt
386.9 km
Apogee alt
393.7 km
Semi-major
6,768.4 km
B*
2.7236e-4
RAAN
215.8670°
Arg perigee
202.5001°
Mean anomaly
157.6035°
Rev number
18,906

§ Raw data

VIGORIDE-51 55056U 23001AZ  26145.10340200  .00021187  00000+0  27236-3 0  99962 55056  97.3236 215.8670 0005040 202.5001 157.6035 15.59099564189065

JSON: /api/v1/satellites/55056 · /tle

For live sub-satellite position, see the globe view (requires WebGL).

§ Visibility from observer

Set your observer location to see the next 7 days of passes ≥ 10°. The values pass through the URL so the page stays shareable.

No JS? Fill the form by hand. The geolocation button needs JavaScript.

§ Radio — SatNOGS DB

ModeDescriptionDownlinkUplink
FM UHF Beacon 400.500 MHz
FM X-band Downlink 8.213 GHz
FM X-band MAPLE Downlink 9.884 GHz
FM X-band SSPD Downlink 9.950 GHz

4 transmitters · refreshed weekly from db.satnogs.org